• In Deutschland
  • Länderverzeichnis
  • Für 7 Tage
  • Wassertemperatur
  • Satellitenkarten
  • Wetterkarte
  • Widgets
  • user-avatar
    Anmelden

    Stündliche Wetter Hoeryŏng

    Heute, 26 September, Dienstag

    Zeit Temperatur Niederschläge Wind Luftdruck Luftfeuchtigkeit
    00:00 +20°C° 0 mm 2 m/S 755 mmHg 75%
    01:00 +19°C° 0 mm 2 m/S 755 mmHg 76%
    02:00 +20°C° 0 mm 1 m/S 754 mmHg 78%
    03:00 +19°C° 0 mm 1 m/S 754 mmHg 78%
    04:00 +19°C° 0 mm 1 m/S 754 mmHg 79%
    05:00 +19°C° 0 mm 1 m/S 754 mmHg 79%
    06:00 +21°C° 0 mm 1 m/S 754 mmHg 74%
    07:00 +22°C° 0 mm 1 m/S 754 mmHg 68%
    08:00 +24°C° 0 mm 1 m/S 754 mmHg 63%
    09:00 +26°C° 0 mm 1 m/S 754 mmHg 57%
    10:00 +28°C° 0 mm 1 m/S 754 mmHg 52%
    11:00 +28°C° 0 mm 0 m/S 753 mmHg 46%
    12:00 +31°C° 0 mm 1 m/S 753 mmHg 45%
    13:00 +31°C° 0 mm 1 m/S 753 mmHg 43%
    14:00 +31°C° 0 mm 1 m/S 753 mmHg 41%
    15:00 +30°C° 0 mm 1 m/S 752 mmHg 46%
    16:00 +29°C° 0 mm 1 m/S 752 mmHg 51%
    17:00 +27°C° 0 mm 1 m/S 752 mmHg 56%
    18:00 +26°C° 0 mm 1 m/S 752 mmHg 59%
    19:00 +26°C° 0 mm 1 m/S 752 mmHg 61%
    20:00 +25°C° 0 mm 1 m/S 752 mmHg 63%
    21:00 +25°C° 0 mm 2 m/S 752 mmHg 65%
    22:00 +24°C° 0 mm 2 m/S 752 mmHg 68%
    23:00 +24°C° 0 mm 2 m/S 752 mmHg 70%

    Morgen, 27 September, Mittwoch

    Zeit Temperatur Niederschläge Wind Luftdruck Luftfeuchtigkeit
    00:00 +24°C° 0,1 mm 2 m/S 752 mmHg 71%
    01:00 +23°C° 0,1 mm 2 m/S 751 mmHg 72%
    02:00 +23°C° 0,1 mm 2 m/S 751 mmHg 73%
    03:00 +21°C° 1,4 mm 2 m/S 751 mmHg 76%
    04:00 +21°C° 1,4 mm 2 m/S 751 mmHg 79%
    05:00 +20°C° 1,4 mm 2 m/S 751 mmHg 81%
    06:00 +20°C° 0,9 mm 2 m/S 751 mmHg 80%
    07:00 +20°C° 0,9 mm 2 m/S 751 mmHg 79%
    08:00 +20°C° 0,9 mm 2 m/S 751 mmHg 78%
    09:00 +23°C° 0 mm 2 m/S 751 mmHg 71%
    10:00 +24°C° 0 mm 2 m/S 750 mmHg 63%
    11:00 +26°C° 0 mm 2 m/S 750 mmHg 56%
    12:00 +27°C° 0 mm 2 m/S 750 mmHg 53%
    13:00 +27°C° 0 mm 2 m/S 750 mmHg 50%
    14:00 +28°C° 0 mm 2 m/S 749 mmHg 47%
    15:00 +27°C° 0,1 mm 2 m/S 749 mmHg 54%
    16:00 +25°C° 0,1 mm 3 m/S 750 mmHg 62%
    17:00 +24°C° 0,1 mm 3 m/S 750 mmHg 69%
    18:00 +22°C° 0 mm 3 m/S 750 mmHg 72%
    19:00 +21°C° 0 mm 3 m/S 750 mmHg 75%
    20:00 +20°C° 0 mm 2 m/S 750 mmHg 79%
    21:00 +20°C° 0 mm 2 m/S 750 mmHg 80%
    22:00 +19°C° 0 mm 2 m/S 751 mmHg 81%
    23:00 +19°C° 0 mm 2 m/S 751 mmHg 83%

    übermorgen, 28 September, Donnerstag

    Zeit Temperatur Niederschläge Wind Luftdruck Luftfeuchtigkeit
    00:00 +19°C° 0 mm 1 m/S 750 mmHg 83%
    01:00 +19°C° 0 mm 1 m/S 750 mmHg 83%
    02:00 +19°C° 0 mm 1 m/S 750 mmHg 84%
    03:00 +18°C° 0 mm 1 m/S 750 mmHg 84%
    04:00 +18°C° 0 mm 1 m/S 751 mmHg 84%
    05:00 +16°C° 0 mm 1 m/S 751 mmHg 84%
    06:00 +18°C° 0 mm 2 m/S 751 mmHg 74%
    07:00 +19°C° 0 mm 2 m/S 751 mmHg 64%
    08:00 +20°C° 0 mm 2 m/S 752 mmHg 54%
    09:00 +21°C° 0 mm 3 m/S 752 mmHg 46%
    10:00 +22°C° 0 mm 5 m/S 752 mmHg 37%
    11:00 +23°C° 0 mm 6 m/S 752 mmHg 29%
    12:00 +23°C° 0 mm 6 m/S 751 mmHg 30%
    13:00 +22°C° 0 mm 6 m/S 751 mmHg 31%
    14:00 +22°C° 0 mm 6 m/S 751 mmHg 32%
    15:00 +21°C° 0 mm 6 m/S 751 mmHg 36%
    16:00 +19°C° 0 mm 5 m/S 751 mmHg 41%
    17:00 +17°C° 0 mm 5 m/S 752 mmHg 45%
    18:00 +15°C° 0 mm 4 m/S 752 mmHg 46%
    19:00 +14°C° 0 mm 4 m/S 753 mmHg 47%
    20:00 +13°C° 0 mm 4 m/S 754 mmHg 48%
    21:00 +13°C° 0 mm 4 m/S 754 mmHg 48%
    22:00 +12°C° 0 mm 3 m/S 754 mmHg 48%
    23:00 +11°C° 0 mm 3 m/S 755 mmHg 48%

    29 September, Freitag

    Zeit Temperatur Niederschläge Wind Luftdruck Luftfeuchtigkeit
    00:00 +11°C° 0 mm 3 m/S 755 mmHg 48%
    01:00 +12°C° 0 mm 2 m/S 755 mmHg 48%
    02:00 +10°C° 0 mm 2 m/S 755 mmHg 47%
    03:00 +11°C° 0 mm 1 m/S 755 mmHg 48%
    04:00 +11°C° 0 mm 1 m/S 755 mmHg 48%
    05:00 +11°C° 0 mm 1 m/S 755 mmHg 48%
    06:00 +13°C° 0 mm 1 m/S 756 mmHg 46%
    07:00 +15°C° 0 mm 2 m/S 756 mmHg 44%
    08:00 +17°C° 0 mm 2 m/S 756 mmHg 42%
    09:00 +19°C° 0 mm 3 m/S 756 mmHg 39%
    10:00 +21°C° 0 mm 4 m/S 756 mmHg 35%
    11:00 +22°C° 0 mm 5 m/S 756 mmHg 32%
    12:00 +22°C° 0 mm 6 m/S 756 mmHg 34%
    13:00 +23°C° 0 mm 6 m/S 755 mmHg 36%
    14:00 +23°C° 0 mm 6 m/S 755 mmHg 37%
    15:00 +22°C° 0 mm 6 m/S 755 mmHg 45%
    16:00 +20°C° 0 mm 5 m/S 755 mmHg 52%
    17:00 +19°C° 0 mm 5 m/S 756 mmHg 59%
    18:00 +18°C° 0 mm 4 m/S 756 mmHg 62%
    19:00 +18°C° 0 mm 4 m/S 756 mmHg 64%
    20:00 +17°C° 0 mm 4 m/S 757 mmHg 67%
    21:00 +17°C° 0,2 mm 4 m/S 757 mmHg 70%
    22:00 +17°C° 0,2 mm 4 m/S 757 mmHg 73%
    23:00 +17°C° 0,2 mm 4 m/S 757 mmHg 76%

    30 September, Samstag

    Zeit Temperatur Niederschläge Wind Luftdruck Luftfeuchtigkeit
    00:00 +17°C° 0,5 mm 3 m/S 757 mmHg 78%
    01:00 +17°C° 0,5 mm 3 m/S 757 mmHg 80%
    02:00 +17°C° 0,5 mm 3 m/S 757 mmHg 82%
    03:00 +16°C° 0 mm 2 m/S 757 mmHg 83%
    04:00 +16°C° 0 mm 2 m/S 757 mmHg 84%
    05:00 +15°C° 0 mm 1 m/S 758 mmHg 85%
    06:00 +18°C° 0 mm 1 m/S 758 mmHg 77%
    07:00 +19°C° 0 mm 1 m/S 758 mmHg 70%
    08:00 +21°C° 0 mm 1 m/S 759 mmHg 62%
    09:00 +21°C° 0 mm 2 m/S 759 mmHg 53%
    10:00 +24°C° 0 mm 2 m/S 758 mmHg 43%
    11:00 +25°C° 0 mm 3 m/S 758 mmHg 33%
    12:00 +26°C° 0 mm 3 m/S 758 mmHg 33%
    13:00 +26°C° 0 mm 4 m/S 758 mmHg 33%
    14:00 +26°C° 0 mm 4 m/S 758 mmHg 33%
    15:00 +25°C° 0 mm 3 m/S 758 mmHg 38%
    16:00 +23°C° 0 mm 2 m/S 758 mmHg 44%
    17:00 +21°C° 0 mm 2 m/S 758 mmHg 49%
    18:00 +21°C° 0 mm 1 m/S 758 mmHg 51%
    19:00 +20°C° 0 mm 1 m/S 759 mmHg 53%
    20:00 +19°C° 0 mm 1 m/S 759 mmHg 55%
    21:00 +19°C° 0 mm 1 m/S 759 mmHg 57%
    22:00 +18°C° 0 mm 1 m/S 759 mmHg 58%
    23:00 +18°C° 0 mm 1 m/S 758 mmHg 60%

    1 Oktober, Sonntag

    Zeit Temperatur Niederschläge Wind Luftdruck Luftfeuchtigkeit
    00:00 +16°C° 0 mm 1 m/S 758 mmHg 61%
    01:00 +16°C° 0 mm 1 m/S 758 mmHg 63%
    02:00 +15°C° 0 mm 1 m/S 758 mmHg 64%
    03:00 +15°C° 0 mm 1 m/S 758 mmHg 64%
    04:00 +15°C° 0 mm 1 m/S 758 mmHg 64%
    05:00 +15°C° 0 mm 1 m/S 758 mmHg 64%
    06:00 +16°C° 0 mm 1 m/S 758 mmHg 59%
    07:00 +19°C° 0 mm 1 m/S 758 mmHg 54%
    08:00 +21°C° 0 mm 1 m/S 758 mmHg 48%
    09:00 +23°C° 0 mm 2 m/S 758 mmHg 44%
    10:00 +24°C° 0 mm 2 m/S 757 mmHg 40%
    11:00 +26°C° 0 mm 3 m/S 756 mmHg 36%
    12:00 +27°C° 0 mm 3 m/S 756 mmHg 38%
    13:00 +27°C° 0 mm 3 m/S 755 mmHg 40%
    14:00 +27°C° 0 mm 4 m/S 755 mmHg 42%
    15:00 +26°C° 0 mm 3 m/S 755 mmHg 48%
    16:00 +24°C° 0 mm 2 m/S 755 mmHg 54%
    17:00 +23°C° 0 mm 1 m/S 755 mmHg 61%
    18:00 +23°C° 0,1 mm 2 m/S 755 mmHg 62%
    19:00 +21°C° 0,1 mm 2 m/S 754 mmHg 63%
    20:00 +21°C° 0,1 mm 3 m/S 754 mmHg 65%
    21:00 +20°C° 3,7 mm 3 m/S 754 mmHg 71%
    22:00 +19°C° 3,7 mm 3 m/S 753 mmHg 78%
    23:00 +18°C° 3,7 mm 3 m/S 752 mmHg 85%
    Mehr zeigen